This demonstration page uses our WeatherBlox Daily Observations layout. Learn more.

Left ArrowRight Arrow

39.51506, -84.39828

Hourly Observations for May 25, 2020

Temp ( °F °C ) Dew Point ( °F °C ) Humidity (%) Winds ( mph kmh ) Pressure ( in mb ) Visibility ( mi km ) Precip ( " mm )
12:15 am 00:15 Clear 68 19.8 65 18.1 90 90 Calm 30.03 1017 10 16.0934 0 0
12:35 am 00:35 Clear 69 20.6 64 17.7 84 84 SSE 3 6 30.02 1017 10 16.0934 0 0
12:55 am 00:55 Clear 67 19.4 64 18 92 92 Calm 30.03 1017 10 16.0934 0 0
1:15 am 01:15 Clear 66 19 65 18.1 95 95 Calm 30.03 1017 7 11.26538 0 0
1:35 am 01:35 Clear 65 18.5 64 17.9 96 96 Calm 30.03 1017 10 16.0934 0 0
1:55 am 01:55 Clear 66 18.8 65 18.1 96 96 Calm 30.03 1017 10 16.0934 0 0
2:15 am 02:15 Clear 65 18.6 65 18.2 98 98 Calm 30.03 1017 10 16.0934 0 0
2:35 am 02:35 Clear 65 18.6 65 18.2 98 98 Calm 30.02 1017 10 16.0934 0 0
2:55 am 02:55 Clear 65 18.4 64 18 98 98 Calm 30.02 1017 10 16.0934 0 0
3:15 am 03:15 Clear 64 18 64 17.7 98 98 Calm 30.02 1017 10 16.0934 0 0
3:35 am 03:35 Clear 64 17.6 64 17.5 99 99 Calm 30.02 1017 10 16.0934 0 0
3:55 am 03:55 Clear 64 17.9 64 17.7 99 99 Calm 30.01 1016 10 16.0934 0 0
4:15 am 04:15 Clear 64 18 64 17.7 98 98 Calm 30.01 1016 10 16.0934 0 0
4:35 am 04:35 Clear 64 18 64 17.7 98 98 Calm 30.01 1016 10 16.0934 0 0
4:55 am 04:55 Clear 64 18 64 17.7 98 98 Calm 30.01 1016 10 16.0934 0 0
5:15 am 05:15 Clear 65 18.1 64 17.8 98 98 Calm 30 1016 10 16.0934 0 0
5:35 am 05:35 Clear 65 18.1 64 17.7 98 98 Calm 30.01 1016 10 16.0934 0 0
5:55 am 05:55 Clear 64 18 64 17.8 99 99 Calm 30.01 1016 10 16.0934 0 0
6:15 am 06:15 Clear 64 17.9 64 17.8 99 99 Calm 30.02 1017 10 16.0934 0 0
6:35 am 06:35 Sunny 64 17.9 64 17.8 99 99 Calm 30.03 1017 10 16.0934 0 0
6:55 am 06:55 Sunny 64 18 64 17.7 98 98 Calm 30.03 1017 10 16.0934 0 0
7:15 am 07:15 Sunny 66 18.7 65 18.4 98 98 Calm 30.04 1017 10 16.0934 0 0
7:35 am 07:35 Sunny 67 19.7 66 18.7 94 94 Calm 30.05 1017 10 16.0934 0 0
7:55 am 07:55 Sunny 69 20.4 66 18.9 91 91 Calm 30.05 1018 10 16.0934 0 0
8:15 am 08:15 Sunny 70 21.2 66 19 87 87 Calm 30.05 1018 10 16.0934 0 0
8:35 am 08:35 Sunny 72 22.1 67 19.2 84 84 Calm 30.06 1018 10 16.0934 0 0
8:55 am 08:55 Sunny 73 22.7 67 19.2 81 81 SSW 3 6 30.06 1018 10 16.0934 0 0
9:15 am 09:15 Sunny 74 23.1 67 19.2 79 79 Calm 30.06 1018 10 16.0934 0 0
9:35 am 09:35 Sunny 75 23.8 67 19.4 76 76 Calm 30.07 1018 10 16.0934 0 0
9:55 am 09:55 Sunny 76 24.4 67 19.4 74 74 Calm 30.06 1018 10 16.0934 0 0
10:15 am 10:15 Sunny 78 25.3 68 19.9 72 72 Calm 30.06 1018 10 16.0934 0 0
10:35 am 10:35 Sunny 78 25.8 68 20 70 70 Calm 30.05 1018 10 16.0934 0 0
10:55 am 10:55 Sunny 81 27 69 20.7 68 68 S 3 6 30.05 1018 10 16.0934 0 0
11:15 am 11:15 Sunny 82 27.5 68 20.2 64 64 Calm 30.04 1017 10 16.0934 0 0
11:35 am 11:35 Sunny 83 28.4 69 20.5 62 62 Calm 30.05 1017 10 16.0934 0 0
11:55 am 11:55 Sunny 83 28.5 68 20 60 60 Calm 30.05 1017 10 16.0934 0 0
12:15 pm 12:15 Partly Cloudy 84 28.8 68 19.8 58 58 W 3 6 30.04 1017 10 16.0934 0 0
12:35 pm 12:35 Partly Cloudy 85 29.3 68 20 57 57 Calm 30.03 1017 10 16.0934 0 0
12:55 pm 12:55 Partly Cloudy 83 28.2 68 20 61 61 WSW 6 9 30.04 1017 10 16.0934 0 0
1:15 pm 13:15 Partly Cloudy 84 29.1 67 19.3 56 56 SSW 6 9 30.02 1017 10 16.0934 0 0
1:35 pm 13:35 Cloudy 82 27.5 67 19.6 62 62 WSW 21 33 30.04 1017 10 16.0934 0 0
1:55 pm 13:55 Cloudy with Thunderstorms 73 22.7 68 20.2 86 86 E 3 6 30.06 1018 5 8.0467 0 0
2:15 pm 14:15 Cloudy 73 22.7 69 20.3 86 86 SSE 6 9 30.05 1018 10 16.0934 0 0
2:35 pm 14:35 Partly Cloudy 74 23.1 70 20.9 87 87 Calm 30.04 1017 10 16.0934 0 0
2:55 pm 14:55 Cloudy with Nearby Thunderstorms 74 23.2 70 21.2 89 89 WNW 3 6 30.05 1018 10 16.0934 0 0
3:15 pm 15:15 Cloudy with Thunderstorms 76 24.4 68 20 77 77 Calm 30.03 1017 10 16.0934 0 0
3:35 pm 15:35 Sunny 74 23.4 70 21.1 87 87 Calm 30.05 1017 10 16.0934 0 0
3:55 pm 15:55 Sunny 74 23.4 70 21 86 86 SE 6 9 30.04 1017 10 16.0934 0 0
4:15 pm 16:15 Sunny 73 23 68 20 83 83 SE 5 7 30.04 1017 10 16.0934 0 0
4:35 pm 16:35 Sunny 74 23.1 69 20.3 84 84 Calm 30.03 1017 10 16.0934 0 0
4:55 pm 16:55 Sunny 75 23.9 68 20 79 79 Calm 30.02 1016 10 16.0934 0 0
5:15 pm 17:15 Sunny 76 24.4 70 21 81 81 NE 5 7 30.01 1016 10 16.0934 0 0
5:35 pm 17:35 Sunny 76 24.6 68 20.2 77 77 ESE 6 9 30 1016 10 16.0934 0 0
5:55 pm 17:55 Sunny 76 24.2 69 20.3 79 79 E 7 11 30.01 1016 10 16.0934 0 0
6:15 pm 18:15 Sunny 77 24.9 69 20.6 77 77 E 5 7 30.01 1016 10 16.0934 0 0
6:35 pm 18:35 Sunny 77 25.1 69 20.3 75 75 ENE 5 7 30.01 1016 10 16.0934 0 0
6:55 pm 18:55 Sunny 78 25.3 69 20.4 74 74 ENE 5 7 30 1016 10 16.0934 0 0
7:15 pm 19:15 Sunny 78 25.7 68 20.2 72 72 ESE 3 6 29.99 1016 10 16.0934 0 0
7:35 pm 19:35 Sunny 79 26 69 20.3 71 71 Calm 29.99 1016 10 16.0934 0 0
7:55 pm 19:55 Sunny 79 25.9 67 19.2 67 67 SSE 3 6 30 1016 10 16.0934 0 0
8:15 pm 20:15 Sunny 77 25.1 66 18.7 68 68 Calm 30 1016 10 16.0934 0 0
8:35 pm 20:35 Sunny 76 24.6 66 18.9 71 71 SSE 3 6 30 1016 10 16.0934 0 0
8:55 pm 20:55 Clear 76 24.5 66 18.9 71 71 Calm 30.01 1016 10 16.0934 0 0
9:15 pm 21:15 Clear with Mist and Fog 71 21.5 68 19.8 90 90 Calm 30.02 1017 7 11.26538 0 0
9:35 pm 21:35 Clear 69 20.3 67 19.6 96 96 Calm 30.03 1017 10 16.0934 0 0
9:55 pm 21:55 Clear 69 20.4 68 19.9 97 97 Calm 30.03 1017 10 16.0934 0 0
10:15 pm 22:15 Clear 69 20.6 68 20.2 98 98 Calm 30.03 1017 10 16.0934 0 0
10:35 pm 22:35 Clear 67 19.6 67 19.3 98 98 Calm 30.05 1017 10 16.0934 0 0
10:55 pm 22:55 Clear with Mist and Fog 67 19.6 67 19.3 98 98 Calm 30.05 1017 3.5 5.63269 0 0
11:15 pm 23:15 Clear 66 19.1 66 19 99 99 Calm 30.05 1017 10 16.0934 0 0
11:35 pm 23:35 Clear 66 18.9 66 18.8 99 99 Calm 30.05 1018 10 16.0934 0 0
11:55 pm 23:55 Clear 65 18.5 65 18.5 100 100 Calm 30.05 1018 10 16.0934 0 0

Powered by AerisWeather